AAL2399 KMCO-KMIA

Flight info

Callsign AAL2399
Flight time 0h 40m
Altitude 23000
Route DDANY3 DDANY CSTAL3
Aircraft MD11/H-SDE1E2E3FGHIJ2J3J4J5M1RWXY/LB1D1

Departure

Time 2026-04-26 18:20
Airport Orlando International Airport (KMCO)

Arrival

Time 2026-04-26 19:00
Airport Miami International Airport (KMIA)
Time Latitude Longitude Altitude Speed Heading
2026-04-26 17:55 28.43553 -81.30040 108 ft 0 kts 253°
2026-04-26 18:05 28.43557 -81.30020 108 ft 4 kts 256°
2026-04-26 18:06 28.43564 -81.29990 108 ft 4 kts 252°
2026-04-26 18:06 28.43573 -81.29961 108 ft 4 kts 248°
2026-04-26 18:06 28.43584 -81.29933 106 ft 4 kts 242°
2026-04-26 18:06 28.43598 -81.29908 106 ft 4 kts 230°
2026-04-26 18:07 28.43617 -81.29889 106 ft 4 kts 191°
2026-04-26 18:07 28.43623 -81.29888 107 ft 3 kts 179°
2026-04-26 18:11 28.43587 -81.29887 108 ft 10 kts 179°
2026-04-26 18:11 28.43559 -81.29885 108 ft 1 kts 172°
2026-04-26 18:12 28.43556 -81.29882 109 ft 1 kts 149°
2026-04-26 18:12 28.43554 -81.29875 109 ft 1 kts 116°
2026-04-26 18:12 28.43550 -81.29850 110 ft 6 kts 99°
2026-04-26 18:12 28.43550 -81.29804 111 ft 4 kts 89°
2026-04-26 18:13 28.43550 -81.29777 111 ft 0 kts 90°
2026-04-26 18:14 28.43550 -81.29772 111 ft 1 kts 90°
2026-04-26 18:14 28.43550 -81.29770 111 ft 0 kts 90°
2026-04-26 18:16 28.43550 -81.29749 111 ft 3 kts 90°
2026-04-26 18:16 28.43550 -81.29729 111 ft 2 kts 90°
2026-04-26 18:17 28.43550 -81.29711 111 ft 2 kts 90°
2026-04-26 18:17 28.43550 -81.29698 111 ft 5 kts 90°
2026-04-26 18:17 28.43550 -81.29643 111 ft 7 kts 90°
2026-04-26 18:17 28.43548 -81.29604 111 ft 1 kts 101°
2026-04-26 18:18 28.43542 -81.29599 112 ft 2 kts 136°
2026-04-26 18:18 28.43512 -81.29590 111 ft 6 kts 172°
2026-04-26 18:18 28.43502 -81.29589 112 ft 0 kts 176°
2026-04-26 18:19 28.43494 -81.29588 110 ft 6 kts 176°
2026-04-26 18:20 28.43183 -81.29588 114 ft 96 kts 179°
2026-04-26 18:20 28.42200 -81.29561 176 ft 176 kts 180°
2026-04-26 18:20 28.40936 -81.29515 993 ft 187 kts 182°
2026-04-26 18:20 28.40107 -81.29511 1877 ft 170 kts 181°
2026-04-26 18:21 28.38506 -81.29271 3480 ft 182 kts 165°
2026-04-26 18:21 28.37246 -81.28563 3964 ft 229 kts 151°
2026-04-26 18:21 28.35770 -81.27501 4153 ft 269 kts 149°
2026-04-26 18:21 28.34185 -81.26307 5159 ft 275 kts 149°
2026-04-26 18:22 28.32575 -81.25089 6418 ft 281 kts 149°
2026-04-26 18:22 28.30938 -81.23853 7624 ft 285 kts 149°
2026-04-26 18:22 28.29264 -81.22594 8734 ft 291 kts 148°
2026-04-26 18:22 28.27559 -81.21315 9886 ft 297 kts 149°
2026-04-26 18:23 28.25768 -81.19976 10343 ft 327 kts 148°
2026-04-26 18:23 28.23744 -81.18469 10501 ft 366 kts 148°
2026-04-26 18:23 28.21584 -81.16852 11306 ft 377 kts 147°
2026-04-26 18:23 28.19651 -81.14794 12251 ft 387 kts 127°
2026-04-26 18:24 28.18358 -81.12094 13219 ft 395 kts 108°
2026-04-26 18:24 28.17857 -81.09030 14112 ft 400 kts 89°
2026-04-26 18:24 28.18165 -81.05898 14946 ft 402 kts 75°
2026-04-26 18:24 28.18908 -81.02829 15760 ft 406 kts 70°
2026-04-26 18:25 28.19780 -80.99766 16616 ft 410 kts 70°
2026-04-26 18:25 28.20587 -80.96638 17434 ft 416 kts 74°
2026-04-26 18:25 28.21144 -80.93393 18236 ft 423 kts 80°
2026-04-26 18:25 28.21442 -80.90059 18921 ft 428 kts 85°
2026-04-26 18:26 28.21552 -80.86668 19598 ft 433 kts 88°
2026-04-26 18:26 28.21549 -80.83242 20257 ft 437 kts 89°
2026-04-26 18:26 28.21487 -80.79827 20903 ft 441 kts 91°
2026-04-26 18:26 28.21243 -80.76341 21551 ft 446 kts 98°
2026-04-26 18:27 28.20495 -80.72910 21944 ft 450 kts 111°
2026-04-26 18:27 28.19040 -80.69776 22320 ft 451 kts 126°
2026-04-26 18:27 28.16922 -80.67157 22705 ft 452 kts 141°
2026-04-26 18:27 28.14300 -80.65198 22930 ft 452 kts 155°
2026-04-26 18:28 28.11439 -80.63949 22971 ft 427 kts 165°
2026-04-26 18:28 28.08630 -80.63114 22979 ft 411 kts 169°
2026-04-26 18:28 28.05856 -80.62404 22977 ft 407 kts 169°
2026-04-26 18:28 28.03089 -80.61693 22965 ft 407 kts 169°
2026-04-26 18:29 28.00332 -80.60947 22983 ft 408 kts 168°
2026-04-26 18:29 27.97581 -80.60166 22990 ft 408 kts 168°
2026-04-26 18:29 27.94832 -80.59360 22987 ft 408 kts 167°
2026-04-26 18:29 27.92086 -80.58540 22994 ft 408 kts 167°
2026-04-26 18:30 27.89343 -80.57714 22996 ft 408 kts 167°
2026-04-26 18:30 27.86597 -80.56884 22991 ft 408 kts 167°
2026-04-26 18:30 27.83851 -80.56054 23000 ft 408 kts 167°
2026-04-26 18:30 27.81110 -80.55225 23003 ft 408 kts 167°
2026-04-26 18:31 27.78364 -80.54396 23001 ft 408 kts 167°
2026-04-26 18:31 27.75617 -80.53568 23000 ft 408 kts 167°
2026-04-26 18:31 27.72866 -80.52739 22990 ft 410 kts 167°
2026-04-26 18:31 27.70106 -80.51908 23004 ft 410 kts 167°
2026-04-26 18:32 27.67349 -80.51078 23007 ft 410 kts 167°
2026-04-26 18:32 27.64599 -80.50227 23005 ft 411 kts 165°
2026-04-26 18:32 27.61876 -80.49249 23007 ft 411 kts 163°
2026-04-26 18:32 27.59173 -80.48194 23005 ft 411 kts 162°
2026-04-26 18:33 27.56477 -80.47108 23006 ft 411 kts 162°
2026-04-26 18:33 27.53784 -80.46018 23017 ft 411 kts 162°
2026-04-26 18:33 27.51088 -80.44930 23008 ft 411 kts 162°
2026-04-26 18:33 27.48387 -80.43846 23003 ft 411 kts 162°
2026-04-26 18:34 27.45694 -80.42769 23003 ft 411 kts 162°
2026-04-26 18:34 27.43000 -80.41695 23006 ft 411 kts 162°
2026-04-26 18:34 27.40302 -80.40622 22994 ft 411 kts 162°
2026-04-26 18:34 27.37604 -80.39550 22995 ft 411 kts 162°
2026-04-26 18:35 27.34905 -80.38478 22989 ft 411 kts 162°
2026-04-26 18:35 27.32244 -80.37421 22990 ft 411 kts 162°
2026-04-26 18:35 27.29545 -80.36351 22990 ft 411 kts 162°
2026-04-26 18:35 27.26848 -80.35281 22996 ft 411 kts 162°
2026-04-26 18:36 27.24155 -80.34214 22990 ft 411 kts 162°
2026-04-26 18:36 27.21456 -80.33148 22995 ft 411 kts 162°
2026-04-26 18:36 27.18756 -80.32093 22993 ft 411 kts 163°
2026-04-26 18:36 27.16054 -80.31043 22998 ft 411 kts 163°
2026-04-26 18:37 27.14228 -80.30335 22991 ft 410 kts 163°
2026-04-26 18:37 27.11524 -80.29286 23000 ft 412 kts 163°
2026-04-26 18:37 27.07939 -80.27896 22991 ft 412 kts 163°
2026-04-26 18:37 27.06149 -80.27202 22986 ft 412 kts 163°
2026-04-26 18:38 27.03399 -80.26135 22997 ft 412 kts 163°
2026-04-26 18:38 27.00688 -80.25084 22997 ft 412 kts 163°
2026-04-26 18:38 26.98016 -80.24048 23005 ft 412 kts 163°
2026-04-26 18:38 26.95305 -80.22998 22996 ft 412 kts 163°
2026-04-26 18:39 26.92597 -80.21950 22994 ft 412 kts 163°
2026-04-26 18:39 26.89887 -80.20901 23015 ft 413 kts 163°
2026-04-26 18:39 26.87095 -80.19826 22546 ft 440 kts 163°
2026-04-26 18:39 26.84158 -80.18716 21839 ft 449 kts 163°
2026-04-26 18:40 26.81202 -80.17610 21272 ft 447 kts 163°
2026-04-26 18:40 26.78260 -80.16513 20992 ft 446 kts 163°
2026-04-26 18:40 26.75371 -80.15436 20818 ft 425 kts 163°
2026-04-26 18:40 26.72621 -80.14419 20427 ft 410 kts 164°
2026-04-26 18:41 26.69900 -80.13544 19815 ft 403 kts 167°
2026-04-26 18:41 26.67204 -80.12779 19156 ft 397 kts 168°
2026-04-26 18:41 26.64532 -80.12061 18508 ft 392 kts 168°
2026-04-26 18:41 26.61892 -80.11359 17823 ft 388 kts 168°
2026-04-26 18:42 26.59312 -80.10689 17148 ft 384 kts 169°
2026-04-26 18:42 26.56686 -80.10030 16516 ft 380 kts 169°
2026-04-26 18:42 26.54151 -80.09401 15918 ft 376 kts 169°
2026-04-26 18:42 26.51574 -80.08762 15310 ft 373 kts 169°
2026-04-26 18:43 26.49076 -80.08142 14729 ft 371 kts 169°
2026-04-26 18:43 26.46569 -80.07528 14144 ft 368 kts 171°
2026-04-26 18:43 26.44084 -80.06966 13565 ft 364 kts 171°
2026-04-26 18:43 26.41619 -80.06436 13136 ft 359 kts 172°
2026-04-26 18:44 26.39171 -80.05886 12968 ft 358 kts 170°
2026-04-26 18:44 26.36761 -80.05265 12957 ft 347 kts 169°
2026-04-26 18:44 26.34484 -80.04642 12946 ft 329 kts 168°
2026-04-26 18:44 26.32290 -80.04033 12947 ft 323 kts 169°
2026-04-26 18:45 26.30109 -80.03431 12940 ft 322 kts 169°
2026-04-26 18:45 26.27933 -80.02831 12938 ft 322 kts 169°
2026-04-26 18:45 26.25741 -80.02370 12939 ft 319 kts 181°
2026-04-26 18:45 26.23553 -80.02531 12939 ft 315 kts 192°
2026-04-26 18:46 26.21399 -80.02971 12935 ft 314 kts 195°
2026-04-26 18:46 26.19257 -80.03481 12934 ft 316 kts 195°
2026-04-26 18:46 26.17110 -80.04002 12930 ft 316 kts 195°
2026-04-26 18:46 26.14964 -80.04517 12931 ft 316 kts 195°
2026-04-26 18:47 26.12811 -80.05026 12932 ft 316 kts 195°
2026-04-26 18:47 26.10660 -80.05529 12925 ft 316 kts 195°
2026-04-26 18:47 26.08505 -80.06029 12926 ft 316 kts 195°
2026-04-26 18:47 26.06348 -80.06552 12694 ft 318 kts 196°
2026-04-26 18:48 26.04228 -80.07094 12115 ft 306 kts 197°
2026-04-26 18:48 26.02205 -80.07619 11581 ft 292 kts 197°
2026-04-26 18:48 26.00274 -80.08122 11166 ft 278 kts 197°
2026-04-26 18:48 25.98419 -80.08607 10810 ft 271 kts 197°
2026-04-26 18:49 25.96582 -80.09091 10453 ft 272 kts 197°
2026-04-26 18:49 25.94750 -80.09572 10167 ft 268 kts 197°
2026-04-26 18:49 25.92987 -80.10132 10033 ft 261 kts 208°
2026-04-26 18:49 25.91516 -80.11241 9967 ft 255 kts 227°
2026-04-26 18:50 25.90280 -80.12652 9900 ft 255 kts 232°
2026-04-26 18:50 25.89105 -80.14119 9700 ft 255 kts 235°
2026-04-26 18:50 25.88219 -80.15782 9222 ft 245 kts 254°
2026-04-26 18:50 25.87923 -80.17622 8846 ft 243 kts 268°
2026-04-26 18:51 25.87840 -80.19490 8476 ft 242 kts 270°
2026-04-26 18:51 25.87779 -80.21358 8030 ft 241 kts 270°
2026-04-26 18:51 25.87722 -80.23205 7603 ft 238 kts 269°
2026-04-26 18:51 25.87664 -80.25040 7219 ft 238 kts 269°
2026-04-26 18:52 25.87607 -80.26870 6870 ft 237 kts 269°
2026-04-26 18:52 25.87694 -80.28672 6509 ft 233 kts 284°
2026-04-26 18:52 25.88277 -80.30337 6130 ft 232 kts 295°
2026-04-26 18:52 25.89005 -80.31929 5771 ft 231 kts 296°
2026-04-26 18:53 25.89811 -80.33473 5425 ft 232 kts 302°
2026-04-26 18:53 25.90697 -80.34965 5037 ft 229 kts 303°
2026-04-26 18:53 25.91590 -80.36434 4677 ft 231 kts 302°
2026-04-26 18:53 25.92488 -80.37884 4318 ft 232 kts 303°
2026-04-26 18:54 25.93421 -80.39377 3944 ft 232 kts 303°
2026-04-26 18:54 25.94346 -80.40844 3573 ft 231 kts 303°
2026-04-26 18:54 25.95258 -80.42289 3218 ft 232 kts 303°
2026-04-26 18:54 25.96188 -80.43783 3033 ft 233 kts 303°
2026-04-26 18:55 25.96908 -80.45364 2987 ft 228 kts 280°
2026-04-26 18:55 25.96836 -80.47053 2984 ft 223 kts 250°
2026-04-26 18:55 25.95932 -80.48463 2987 ft 223 kts 218°
2026-04-26 18:55 25.94531 -80.49145 2987 ft 228 kts 188°
2026-04-26 18:56 25.92982 -80.48919 2995 ft 228 kts 159°
2026-04-26 18:56 25.91653 -80.47928 3020 ft 233 kts 144°
2026-04-26 18:56 25.90429 -80.46766 2989 ft 230 kts 142°
2026-04-26 18:56 25.89193 -80.45622 3012 ft 233 kts 143°
2026-04-26 18:57 25.87941 -80.44477 2995 ft 233 kts 142°
2026-04-26 18:57 25.87111 -80.43703 3008 ft 233 kts 139°
2026-04-26 18:57 25.85788 -80.41798 2799 ft 234 kts 123°
2026-04-26 18:57 25.85028 -80.40302 2508 ft 216 kts 122°
2026-04-26 18:58 25.84348 -80.38919 2159 ft 190 kts 121°
2026-04-26 18:58 25.83756 -80.37734 1939 ft 165 kts 122°
2026-04-26 18:58 25.83214 -80.36661 1549 ft 153 kts 123°
2026-04-26 18:58 25.82699 -80.35654 1181 ft 147 kts 123°
2026-04-26 18:59 25.82197 -80.34669 876 ft 147 kts 124°
2026-04-26 18:59 25.81687 -80.33669 747 ft 149 kts 126°
2026-04-26 18:59 25.81191 -80.32671 538 ft 146 kts 126°
2026-04-26 18:59 25.80685 -80.31692 314 ft 145 kts 125°
2026-04-26 19:00 25.80187 -80.30732 146 ft 144 kts 122°
2026-04-26 19:00 25.79703 -80.29783 28 ft 132 kts 122°
2026-04-26 19:00 25.79330 -80.29063 21 ft 84 kts 120°
2026-04-26 19:00 25.79159 -80.28733 21 ft 33 kts 117°
2026-04-26 19:01 25.79104 -80.28565 21 ft 21 kts 97°
2026-04-26 19:01 25.79111 -80.28466 36 ft 5 kts 73°
2026-04-26 19:01 25.79115 -80.28460 45 ft 0 kts 54°
2026-04-26 19:01 25.79130 -80.28443 24 ft 5 kts 43°
2026-04-26 19:02 25.79170 -80.28414 23 ft 7 kts 24°
2026-04-26 19:02 25.79226 -80.28382 23 ft 10 kts 33°
2026-04-26 19:02 25.79272 -80.28339 25 ft 4 kts 43°
2026-04-26 19:02 25.79283 -80.28326 26 ft 3 kts 48°
2026-04-26 19:03 25.79285 -80.28309 26 ft 2 kts 93°
2026-04-26 19:03 25.79277 -80.28289 25 ft 2 kts 120°
2026-04-26 19:03 25.79268 -80.28276 27 ft 1 kts 128°
2026-04-26 19:03 25.79265 -80.28271 27 ft 1 kts 127°
2026-04-26 19:04 25.79259 -80.28263 26 ft 2 kts 130°
2026-04-26 19:04 25.79256 -80.28259 26 ft 1 kts 130°
2026-04-26 19:04 25.79252 -80.28254 25 ft 1 kts 130°
2026-04-26 19:04 25.79249 -80.28251 26 ft 0 kts 131°
2026-04-26 19:05 25.79248 -80.28250 26 ft 0 kts 131°